Погода в Шипицыно

Россия / Омская область     56˚00′51″N   74˚33′57″E
темп.,
°C
ветер,
м/с
пор.,
м/с
влажн.,
%
обл.,
%
осадки,
мм/ч
давл.,
гПа
погр.,
м
18 января, пн
пн1800:00−8˚юз9159067 0.1 1004997
03:00−10˚зюз71589100 0.2 1004647
06:00−12˚зюз71491100 0.3 1005571
09:00−14˚зюз71492100 0.1 1006525
12:00−16˚з71391100 0.1 1010546
15:00−16˚з51191100 0.0 1013540
18:00−20˚зюз499591 0.0 1016192
21:00−22˚зюз47970 0.0 1018126
19 января, вт
вт1900:00−24˚зюз479822 0.0 101994
03:00−24˚юз47950 0.0 102092
06:00−24˚юз49922 0.0 1020151
09:00−23˚зюз489365 0.0 1021188
12:00−21˚зюз369480 0.0 1022221
15:00−21˚зюз239662 0.0 102293
18:00−24˚зсз229734 0.0 102320
21:00−26˚с12991 0.0 102419
20 января, ср
ср2000:00−27˚св229915 0.0 102519
03:00−28˚в239437 0.0 102620
06:00−28˚в339168 0.0 102738
09:00−28˚в3590100 0.0 102790
12:00−25˚вюв4889100 0.0 1026248
15:00−23˚в5989100 0.0 1024259
18:00−23˚в61187100 0.0 1022288
21:00−21˚вюв51189100 0.0 1021339
21 января, чт
чт2100:00−21˚юв51098100 1.1 1019352
03:00−21˚юв4797100 0.6 1017245
06:00−21˚ююв4798100 0.6 1016180
09:00−21˚ю3798100 0.1 1015161
12:00−20˚юз4895100 0.1 1014272
15:00−20˚ююз489594 0.0 1013326
18:00−23˚ююз479884 0.0 1011102
21:00−22˚юз499776 0.0 1009261
22 января, пт
пт2200:00−21˚зюз599788 0.4 1008517
03:00−22˚зюз5109598 0.1 1007390
06:00−26˚зюз5109798 0.2 1008249
09:00−26˚зюз6139699 0.0 1009347
12:00−25˚з6119399 0.0 1011417
15:00−25˚з599291 0.0 1013394
18:00−29˚зюз479671 0.0 101590
21:00−31˚зюз239718 0.0 101619